DW7653 Weather Reports


time (UTC)temp
F
wind
direction
speed
knots
gust
knots
rain 1hr
in
rain 24hr
in
rain mn
in
humidity
%
barometer
mb
20260510161559 80 360 0.0 0.0 0.00 0.00 0.00 36 1015.0
20260510160055 79 360 0.0 0.0 0.00 0.00 0.00 37 1015.0
20260510154549 77 360 0.0 0.0 0.00 0.00 0.00 44 1015.1
20260510153044 75 360 0.0 0.0 0.00 0.00 0.00 45 1015.2
20260510151544 73 360 0.0 0.0 0.00 0.00 0.00 49 1015.3
20260510150038 71 360 0.0 0.0 0.00 0.00 0.00 53 1015.3
20260510144532 69 360 0.0 0.0 0.00 0.00 0.00 59 1015.2
20260510143033 67 360 0.0 0.0 0.00 0.00 0.00 60 1015.3
20260510141523 66 360 0.0 0.0 0.00 0.00 0.00 64 1015.2
20260510140018 65 360 0.0 0.0 0.00 0.00 0.00 64 1015.1
20260510134514 64 360 0.0 0.0 0.00 0.00 0.00 60 1015.3
20260510133021 64 360 0.0 0.0 0.00 0.00 0.00 55 1015.2
20260510131505 63 360 0.0 0.0 0.00 0.00 0.00 51 1015.2
20260510124559 60 360 0.0 0.0 0.00 0.00 0.00 15 1014.7
20260510123101 59 360 0.0 0.0 0.00 0.00 0.00 9 1014.6
20260510121551 59 360 0.0 0.0 0.00 0.00 0.00 11 1014.5
20260510120049 58 360 0.0 0.0 0.00 0.00 0.00 15 1014.4
20260510114547 58 360 0.0 0.0 0.00 0.00 0.00 20 1014.5
20260510113046 57 360 0.0 0.0 0.00 0.00 0.00 23 1014.2
20260510111543 57 360 0.0 0.0 0.00 0.00 0.00 24 1013.9
20260510110041 58 360 0.0 0.0 0.00 0.00 0.00 24 1013.5
20260510104540 58 360 0.0 0.0 0.00 0.00 0.00 24 1013.2
20260510103035 58 360 0.0 0.0 0.00 0.00 0.00 25 1012.9
20260510101532 58 360 0.0 0.0 0.00 0.00 0.00 26 1012.6
20260510100031 58 360 0.0 0.0 0.00 0.00 0.00 25 1012.6
20260510094529 58 360 0.0 0.0 0.00 0.00 0.00 24 1012.4
20260510093027 58 360 0.0 0.0 0.00 0.00 0.00 24 1012.3
20260510091527 59 360 0.0 0.0 0.00 0.00 0.00 25 1012.2
20260510090028 59 360 0.0 0.0 0.00 0.00 0.00 25 1012.0
20260510084525 59 360 0.0 0.0 0.00 0.00 0.00 24 1011.9
20260510083023 59 360 0.0 0.0 0.00 0.00 0.00 25 1011.9
20260510081523 59 360 0.0 0.0 0.00 0.00 0.00 27 1011.8
20260510080026 59 360 0.0 0.0 0.00 0.00 0.00 28 1011.8
20260510074522 59 360 0.0 0.0 0.00 0.00 0.00 30 1011.9
20260510073022 59 360 0.0 0.0 0.00 0.00 0.00 31 1011.5
20260510071517 59 360 0.0 0.0 0.00 0.00 0.00 33 1011.3
20260510070017 60 360 0.0 0.0 0.00 0.00 0.00 32 1011.3
20260510064515 60 360 0.0 0.0 0.00 0.00 0.00 31 1011.6
20260510063015 60 360 0.0 0.0 0.00 0.00 0.00 31 1011.4
20260510061513 60 360 0.0 0.0 0.00 0.00 0.00 30 1011.3
20260510060018 60 360 0.0 0.0 0.00 0.00 0.00 31 1011.7
20260510054511 60 360 0.0 0.0 0.00 0.00 0.00 32 1011.8
20260510053012 61 360 0.0 0.0 0.00 0.00 0.00 36 1012.0
20260510051506 61 360 0.0 0.0 0.00 0.00 0.00 35 1012.1
20260510050007 61 360 0.0 0.0 0.00 0.00 0.00 34 1012.1
20260510044504 61 360 0.0 0.0 0.00 0.00 0.00 31 1012.3
20260510043002 61 360 0.0 0.0 0.00 0.00 0.00 31 1012.0
20260510041601 61 360 0.0 0.0 0.00 0.00 0.00 33 1011.9
20260510040112 61 360 0.0 0.0 0.00 0.00 0.00 32 1012.0
20260510034554 61 360 0.0 0.0 0.00 0.00 0.00 35 1012.0
20260510033052 62 360 0.0 0.0 0.00 0.00 0.00 39 1011.9
20260510031553 62 360 0.0 0.0 0.00 0.00 0.00 44 1011.9
20260510030040 62 360 0.0 0.0 0.00 0.00 0.00 43 1011.9
20260510024537 63 360 0.0 0.0 0.00 0.00 0.00 43 1011.7
20260510023033 63 360 0.0 0.0 0.00 0.00 0.00 47 1011.7
20260510021535 64 360 0.0 0.0 0.00 0.00 0.00 54 1011.6
20260510020023 64 360 0.0 0.0 0.00 0.00 0.00 57 1011.5
20260510014518 65 360 0.0 0.0 0.00 0.00 0.00 57 1011.2
20260510013014 65 360 0.0 0.0 0.00 0.00 0.00 60 1010.9
20260510011510 66 360 0.0 0.0 0.00 0.00 0.00 61 1010.6
20260510010006 67 360 0.0 0.0 0.00 0.00 0.00 63 1010.5
20260510004501 68 360 0.0 0.0 0.00 0.00 0.00 64 1010.5
20260510003103 69 360 0.0 0.0 0.00 0.00 0.00 64 1010.4
20260510001554 69 360 0.0 0.0 0.00 0.00 0.00 64 1010.4
20260510000051 70 360 0.0 0.0 0.00 0.00 0.00 63 1010.2
20260509234543 70 360 0.0 0.0 0.00 0.00 0.00 63 1009.9
20260509233038 70 360 0.0 0.0 0.00 0.00 0.00 63 1009.8
20260509231535 71 360 0.0 0.0 0.00 0.00 0.00 62 1009.7
20260509230030 71 360 0.0 0.0 0.00 0.00 0.00 62 1009.5
20260509224525 71 360 0.0 0.0 0.00 0.00 0.00 61 1009.4
20260509223025 71 360 0.0 0.0 0.00 0.00 0.00 60 1009.4
20260509221520 72 360 0.0 0.0 0.00 0.00 0.00 61 1009.5
20260509220012 72 360 0.0 0.0 0.00 0.00 0.00 61 1009.5
20260509214507 72 360 0.0 0.0 0.00 0.00 0.00 60 1009.4
20260509213004 73 360 0.0 0.0 0.00 0.00 0.00 59 1009.5
20260509211601 72 360 0.0 0.0 0.00 0.00 0.00 60 1009.2
20260509210113 72 360 0.0 0.0 0.00 0.00 0.00 60 1009.2
20260509204556 71 360 0.0 0.0 0.00 0.00 0.00 60 1009.3
20260509203046 71 360 0.0 0.0 0.00 0.00 0.00 62 1009.4
20260509201549 71 360 0.0 0.0 0.00 0.00 0.00 61 1009.5
20260509200039 71 360 0.0 0.0 0.00 0.00 0.00 60 1009.5
20260509194532 71 360 0.0 0.0 0.00 0.00 0.00 59 1009.8
20260509193028 71 360 0.0 0.0 0.00 0.00 0.00 58 1009.9
20260509191524 71 360 0.0 0.0 0.00 0.00 0.00 59 1009.9
20260509190019 71 360 0.0 0.0 0.00 0.00 0.00 58 1010.0
20260509184521 71 360 0.0 0.0 0.00 0.00 0.00 56 1010.3
20260509183010 71 360 0.0 0.0 0.00 0.00 0.00 55 1010.3
20260509181508 71 360 0.0 0.0 0.00 0.00 0.00 54 1010.4
20260509180001 71 360 0.0 0.0 0.00 0.00 0.00 54 1010.6
20260509174557 70 360 0.0 0.0 0.00 0.00 0.00 54 1010.7
20260509173052 70 360 0.0 0.0 0.00 0.00 0.00 57 1010.9
20260509171551 70 360 0.0 0.0 0.00 0.00 0.00 58 1011.1
20260509170043 69 360 0.0 0.0 0.00 0.00 0.00 56 1011.3
20260509164548 70 360 0.0 0.0 0.00 0.00 0.00 57 1011.8
20260509163037 69 360 0.0 0.0 0.00 0.00 0.00 58 1011.7